Pittsburgh, PA

5:16 PM EST on November 13, 2019 (GMT -0500)
Pittsburgh International

Weather History for KPIT - October, 2019

Change the Weather History Date:

Monday, October 21, 2019

  Actual Average Record
Temperature  
Mean Temperature 58 °F 51 °F  
Max Temperature 72 °F 61 °F 82 °F (1949)
Min Temperature 43 °F 41 °F 23 °F (1952)
Degree Days  
Heating Degree Days 8 14  
Month to date heating degree days 190 233  
Since 1 July heating degree days 198 347  
Cooling Degree Days 0 0  
Month to date cooling degree days 37 6  
Year to date cooling degree days 934 734  
Growing Degree Days 8 (Base 50)    
Moisture  
Dew Point 46 °F    
Average Humidity 73    
Maximum Humidity 100    
Minimum Humidity 36    
Precipitation  
Precipitation 0.00 in 0.07 in 1.39 in (1970)
Month to date precipitation 3.20 1.50  
Year to date precipitation 43.29 31.32  
Snow  
Snow 0.00 in 0.00 in T in (1987)
Month to date snowfall 0.0 0.1  
Snow Depth 0.00 in    
Sea Level Pressure  
Sea Level Pressure 29.97 in    
Wind  
Wind Speed 4 mph ()    
Max Wind Speed 20 mph    
Max Gust Speed 24 mph    
Visibility 7.4 miles    
Events Fog    
T = Trace of Precipitation, MM = Missing Value Source: Averaged Metar Reports

Daily Weather History Graph

Daily Weather History Graph

Search for Another Location

Airport or City:

Astronomy

Oct. 21, 2019 Rise Set
Actual Time 7:38 AM EDT 6:32 PM EDT
Civil Twilight 7:10 AM EDT 7:00 PM EDT
Nautical Twilight 6:38 AM EDT 7:31 PM EDT
Astronomical Twilight 6:07 AM EDT 8:03 PM EDT
Moon No Moon Rise 2:55 PM EDT (10/21)
Length of Visible Light 11h 49m
Length of Day
10h 54m
Waning Gibbous, 48% of the Moon is Illuminated
Oct 21
Waning Gibbous
Oct 27
New
Nov 4
First Quarter
Nov 12
Full
Nov 19
Last Quarter

Hourly Weather History & Observations

Time (EDT) Temp. Windchill Dew Point Humidity Pressure Visibility Wind Dir Wind Speed Gust Speed Precip Events Conditions
12:51 AM 48.0 °F - 45.0 °F 89% 30.02 in 10.0 mi Calm Calm - N/A   Clear
1:51 AM 46.9 °F - 45.0 °F 93% 30.02 in 10.0 mi Calm Calm - N/A   Clear
2:51 AM 46.9 °F - 45.0 °F 93% 30.02 in 10.0 mi Calm Calm - N/A   Clear
3:51 AM 46.0 °F - 43.0 °F 89% 30.03 in 10.0 mi Calm Calm - N/A   Partly Cloudy
4:51 AM 46.0 °F - 43.0 °F 89% 30.03 in 9.0 mi Calm Calm - N/A   Partly Cloudy
5:51 AM 43.0 °F - 41.0 °F 93% 30.03 in 8.0 mi Calm Calm - N/A   Partly Cloudy
6:05 AM 43.0 °F - 39.9 °F 89% 30.00 in 8.0 mi Calm Calm - N/A   Scattered Clouds
6:51 AM 44.1 °F - 41.0 °F 89% 30.04 in 6.0 mi Calm Calm - N/A   Scattered Clouds
7:32 AM 45.0 °F 43.5 °F 45.0 °F 100% 30.02 in 0.2 mi East 3.5 mph - N/A   Scattered Clouds
7:39 AM 45.0 °F 43.5 °F 44.1 °F 97% 30.02 in 0.2 mi East 3.5 mph - N/A Fog Fog
7:51 AM 46.0 °F 43.9 °F 45.0 °F 96% 30.05 in 0.1 mi East 4.6 mph - N/A Fog Fog
8:51 AM 46.9 °F - 46.9 °F 100% 30.06 in 0.1 mi ESE 5.8 mph - N/A Fog Fog
9:51 AM 50.0 °F - 50.0 °F 100% 30.05 in 0.1 mi SE 6.9 mph - N/A Fog Fog
10:51 AM 52.0 °F - 51.1 °F 97% 30.04 in 0.1 mi ESE 5.8 mph - N/A   Overcast
11:10 AM 53.1 °F - 52.0 °F 96% 30.01 in 5.0 mi SE 4.6 mph - N/A   Mostly Cloudy
11:51 AM 61.0 °F - 51.1 °F 70% 30.01 in 10.0 mi ESE 8.1 mph - N/A   Scattered Clouds
12:51 PM 66.0 °F - 46.0 °F 48% 29.98 in 10.0 mi SE 17.3 mph - N/A   Scattered Clouds
1:51 PM 69.1 °F - 45.0 °F 42% 29.94 in 10.0 mi ESE 16.1 mph - N/A   Scattered Clouds
2:51 PM 71.1 °F - 43.0 °F 36% 29.91 in 10.0 mi ESE 18.4 mph - N/A   Scattered Clouds
3:51 PM 71.1 °F - 44.1 °F 38% 29.90 in 10.0 mi SSE 13.8 mph - N/A   Mostly Cloudy
4:51 PM 72.0 °F - 44.1 °F 37% 29.88 in 10.0 mi SE 13.8 mph - N/A   Mostly Cloudy
5:51 PM 70.0 °F - 44.1 °F 39% 29.88 in 10.0 mi SSE 8.1 mph - N/A   Overcast
6:51 PM 66.9 °F - 45.0 °F 45% 29.88 in 10.0 mi SE 9.2 mph - N/A   Overcast
7:51 PM 66.0 °F - 46.9 °F 50% 29.88 in 10.0 mi SE 9.2 mph - N/A   Overcast
8:51 PM 64.9 °F - 48.0 °F 54% 29.87 in 10.0 mi SE 10.4 mph - N/A   Overcast
9:51 PM 64.9 °F - 48.9 °F 56% 29.84 in 10.0 mi SE 12.7 mph - N/A   Overcast
10:51 PM 64.0 °F - 50.0 °F 60% 29.86 in 10.0 mi SSE 10.4 mph - N/A   Overcast
11:51 PM 63.0 °F - 50.0 °F 63% 29.85 in 10.0 mi SE 10.4 mph - N/A   Overcast